User: anonymous   Login
Location: Unspecified
(0.0000°N, 0.0000°E)
Time: 18:43:14
(UTC+02:00)
Language:

Iridium 75 - Orbit

View from above orbital plane
View from above orbital plane
View from above satellite
View from above satellite

Ground track
Ground track

The orbit data is extracted from the following two-line orbital elements,

1 25346U 98032E   18143.32245755  .00000137  00000-0  41909-4 0  9990
2 25346  86.3969  81.9836 0002260  82.9637 277.1816 14.34217504 48424
Epoch (UTC): 23 May 2018 07:44:20
Eccentricity: 0.0002260
inclination: 86.3969°
perigee height: 776 km
apogee height: 779 km
right ascension of ascending node: 81.9836°
argument of perigee: 82.9637°
revolutions per day: 14.34217504
mean anomaly at epoch: 277.1816°
orbit number at epoch: 4842

The dashed part of the orbit path shows where the satellite is in the earth's shadow,  

DLR